| time (UTC) | temp F | wind direction | speed MPH | gust MPH | rain 1hr in | rain 24hr in | rain mn in | humidity % | barometer mb |
| 20260505070033 | 64 | 141 | 12.0 | 17.0 | 0.10 | 2.36 | 2.36 | 93 | 1011.2 |
| 20260505065509 | 64 | 195 | 6.0 | 9.0 | 0.10 | 2.36 | 2.36 | 93 | 1011.2 |
| 20260505065013 | 64 | 154 | 15.0 | 20.0 | 0.10 | 2.36 | 2.36 | 93 | 1010.5 |
| 20260505064512 | 64 | 138 | 19.0 | 24.0 | 0.10 | 2.36 | 2.36 | 93 | 1011.2 |
| 20260505064013 | 64 | 124 | 17.0 | 20.0 | 0.08 | 2.35 | 2.35 | 94 | 1010.8 |
| 20260505063510 | 64 | 171 | 10.0 | 16.0 | 0.08 | 2.35 | 2.35 | 94 | 1010.5 |
| 20260505063023 | 64 | 135 | 13.0 | 20.0 | 0.08 | 2.35 | 2.35 | 94 | 1010.8 |
| 20260505062509 | 64 | 186 | 13.0 | 21.0 | 0.08 | 2.35 | 2.35 | 94 | 1010.5 |
| 20260505062013 | 64 | 148 | 19.0 | 22.0 | 0.03 | 2.30 | 2.30 | 94 | 1010.8 |
| 20260505061512 | 64 | 162 | 21.0 | 24.0 | 0.03 | 2.29 | 2.29 | 94 | 1010.8 |
| 20260505061012 | 64 | 177 | 14.0 | 19.0 | 0.02 | 2.28 | 2.28 | 94 | 1011.2 |
| 20260505060509 | 64 | 198 | 11.0 | 14.0 | 0.00 | 2.27 | 2.27 | 94 | 1010.8 |
| 20260505060032 | 64 | 187 | 14.0 | 24.0 | 0.10 | 2.27 | 2.27 | 94 | 1011.2 |
| 20260505055508 | 64 | 145 | 16.0 | 21.0 | 0.10 | 2.26 | 2.26 | 94 | 1010.8 |
| 20260505055012 | 64 | 128 | 16.0 | 20.0 | 0.10 | 2.26 | 2.26 | 94 | 1010.8 |
| 20260505054512 | 64 | 155 | 12.0 | 16.0 | 0.10 | 2.26 | 2.26 | 94 | 1011.2 |
| 20260505054013 | 64 | 172 | 4.0 | 7.0 | 0.05 | 2.21 | 2.21 | 94 | 1010.8 |
| 20260505053509 | 64 | 108 | 9.0 | 14.0 | 0.05 | 2.21 | 2.21 | 94 | 1010.5 |
| 20260505053022 | 64 | 135 | 16.0 | 20.0 | 0.00 | 2.16 | 2.16 | 94 | 1010.8 |
| 20260505052509 | 64 | 147 | 9.0 | 12.0 | 0.00 | 2.16 | 2.16 | 95 | 1010.5 |
| 20260505052012 | 64 | 148 | 14.0 | 19.0 | 0.00 | 2.16 | 2.16 | 95 | 1010.8 |
| 20260505051512 | 63 | 152 | 16.0 | 21.0 | 0.00 | 2.16 | 2.16 | 95 | 1010.8 |
| 20260505051013 | 63 | 166 | 19.0 | 28.0 | 0.00 | 2.16 | 2.16 | 95 | 1010.5 |
| 20260505050509 | 63 | 118 | 11.0 | 15.0 | 0.00 | 2.16 | 2.16 | 95 | 1010.8 |
| 20260505041512 | 63 | 123 | 16.0 | 19.0 | 0.30 | 1.22 | 1.22 | 95 | 1010.2 |
| 20260505041011 | 63 | 185 | 22.0 | 31.0 | 0.22 | 1.14 | 1.14 | 95 | 1010.2 |
| 20260505040510 | 63 | 134 | 22.0 | 26.0 | 0.15 | 1.07 | 1.07 | 95 | 1010.2 |
| 20260505040031 | 63 | 155 | 16.0 | 28.0 | 0.74 | 0.92 | 0.92 | 95 | 1010.2 |
| 20260505035509 | 63 | 171 | 11.0 | 17.0 | 0.67 | 0.85 | 0.85 | 95 | 1010.5 |
| 20260505035012 | 63 | 128 | 10.0 | 15.0 | 0.45 | 0.63 | 0.63 | 95 | 1010.2 |
| 20260505034512 | 63 | 169 | 7.0 | 11.0 | 0.45 | 0.63 | 0.63 | 95 | 1010.2 |
| 20260505034012 | 63 | 182 | 15.0 | 21.0 | 0.43 | 0.60 | 0.60 | 95 | 1010.5 |
| 20260505033509 | 63 | 137 | 16.0 | 22.0 | 0.42 | 0.60 | 0.60 | 95 | 1010.8 |
| 20260505033021 | 63 | 146 | 22.0 | 26.0 | 0.42 | 0.59 | 0.59 | 95 | 1010.8 |
| 20260505032509 | 63 | 155 | 14.0 | 22.0 | 0.30 | 0.48 | 0.48 | 95 | 1010.8 |
| 20260505032012 | 63 | 166 | 11.0 | 19.0 | 0.25 | 0.42 | 0.42 | 95 | 1011.2 |
| 20260505031512 | 63 | 150 | 22.0 | 30.0 | 0.22 | 0.40 | 0.40 | 95 | 1010.8 |
| 20260505031012 | 63 | 117 | 16.0 | 19.0 | 0.13 | 0.31 | 0.31 | 95 | 1010.8 |
| 20260505030509 | 63 | 146 | 6.0 | 11.0 | 0.04 | 0.22 | 0.22 | 95 | 1010.8 |
| 20260505030031 | 63 | 135 | 11.0 | 17.0 | 0.09 | 0.18 | 0.18 | 95 | 1010.5 |
| 20260505025508 | 63 | 143 | 13.0 | 17.0 | 0.05 | 0.14 | 0.14 | 95 | 1010.8 |
| 20260505025012 | 63 | 182 | 13.0 | 17.0 | 0.05 | 0.14 | 0.14 | 95 | 1010.8 |
| 20260505024512 | 63 | 141 | 14.0 | 17.0 | 0.05 | 0.14 | 0.14 | 94 | 1010.8 |
| 20260505024012 | 63 | 155 | 14.0 | 16.0 | 0.05 | 0.14 | 0.14 | 94 | 1011.2 |
| 20260505023509 | 63 | 120 | 10.0 | 15.0 | 0.05 | 0.14 | 0.14 | 94 | 1011.2 |
| 20260505023021 | 63 | 161 | 12.0 | 15.0 | 0.05 | 0.14 | 0.14 | 94 | 1011.2 |
| 20260505022509 | 63 | 139 | 11.0 | 14.0 | 0.05 | 0.13 | 0.13 | 94 | 1011.2 |
| 20260505022012 | 63 | 143 | 15.0 | 21.0 | 0.05 | 0.13 | 0.13 | 94 | 1011.2 |
| 20260505021512 | 63 | 143 | 10.0 | 14.0 | 0.01 | 0.10 | 0.10 | 94 | 1011.2 |
| 20260505021012 | 63 | 149 | 14.0 | 17.0 | 0.00 | 0.08 | 0.08 | 94 | 1011.2 |
| 20260505020508 | 63 | 144 | 12.0 | 17.0 | 0.00 | 0.08 | 0.08 | 94 | 1011.5 |
| 20260505020030 | 63 | 144 | 16.0 | 21.0 | 0.04 | 0.08 | 0.08 | 94 | 1011.5 |
| 20260505015013 | 63 | 152 | 13.0 | 16.0 | 0.03 | 0.08 | 0.08 | 94 | 1011.5 |
| 20260505014511 | 63 | 162 | 13.0 | 19.0 | 0.03 | 0.08 | 0.08 | 94 | 1011.5 |
| 20260505014012 | 63 | 141 | 16.0 | 17.0 | 0.02 | 0.07 | 0.07 | 94 | 1011.5 |
| 20260505013509 | 63 | 137 | 12.0 | 19.0 | 0.02 | 0.07 | 0.07 | 94 | 1011.5 |
| 20260505013021 | 63 | 149 | 14.0 | 20.0 | 0.02 | 0.07 | 0.07 | 94 | 1011.9 |
| 20260505012508 | 63 | 148 | 16.0 | 21.0 | 0.02 | 0.07 | 0.07 | 94 | 1011.9 |
| 20260505012012 | 63 | 152 | 12.0 | 17.0 | 0.02 | 0.07 | 0.07 | 94 | 1011.9 |
| 20260505011012 | 63 | 153 | 12.0 | 15.0 | 0.00 | 0.05 | 0.05 | 94 | 1011.9 |
| 20260505010509 | 63 | 139 | 11.0 | 14.0 | 0.00 | 0.05 | 0.05 | 94 | 1012.2 |
| 20260505010031 | 63 | 112 | 6.0 | 11.0 | 0.02 | 0.05 | 0.05 | 94 | 1011.9 |
| 20260505005012 | 63 | 160 | 11.0 | 16.0 | 0.02 | 0.05 | 0.05 | 94 | 1012.2 |
| 20260505004511 | 63 | 97 | 11.0 | 12.0 | 0.02 | 0.05 | 0.05 | 94 | 1012.2 |
| 20260505004012 | 63 | 171 | 12.0 | 14.0 | 0.02 | 0.05 | 0.05 | 94 | 1012.5 |
| 20260505003509 | 63 | 248 | 7.0 | 12.0 | 0.02 | 0.05 | 0.05 | 94 | 1012.5 |
| 20260505003021 | 63 | 130 | 14.0 | 17.0 | 0.01 | 0.04 | 0.04 | 94 | 1012.5 |
| 20260505002509 | 63 | 170 | 9.0 | 12.0 | 0.00 | 0.04 | 0.04 | 94 | 1012.5 |
| 20260505002012 | 63 | 155 | 8.0 | 11.0 | 0.00 | 0.03 | 0.03 | 94 | 1012.5 |
| 20260505001512 | 63 | 162 | 12.0 | 14.0 | 0.00 | 0.03 | 0.03 | 94 | 1012.5 |
| 20260505001012 | 63 | 145 | 11.0 | 17.0 | 0.00 | 0.03 | 0.03 | 94 | 1012.5 |
| 20260505000509 | 63 | 142 | 6.0 | 9.0 | 0.00 | 0.03 | 0.03 | 94 | 1012.9 |
| 20260505000033 | 63 | 158 | 8.0 | 11.0 | 0.01 | 0.03 | 0.03 | 94 | 1012.9 |
| 20260504235509 | 63 | 185 | 8.0 | 11.0 | 0.01 | 0.03 | 0.03 | 94 | 1012.9 |
| 20260504235012 | 63 | 194 | 6.0 | 7.0 | 0.01 | 0.03 | 0.03 | 94 | 1012.9 |
| 20260504234512 | 63 | 145 | 10.0 | 15.0 | 0.01 | 0.03 | 0.03 | 94 | 1012.9 |
| 20260504234013 | 63 | 153 | 9.0 | 12.0 | 0.01 | 0.03 | 0.03 | 94 | 1013.2 |
| 20260504233509 | 63 | 210 | 9.0 | 12.0 | 0.01 | 0.03 | 0.03 | 94 | 1013.2 |
| 20260504233022 | 63 | 117 | 5.0 | 7.0 | 0.01 | 0.03 | 0.03 | 94 | 1013.2 |
| 20260504232509 | 63 | 132 | 10.0 | 15.0 | 0.01 | 0.03 | 0.03 | 94 | 1013.2 |
| 20260504231511 | 63 | 189 | 9.0 | 12.0 | 0.00 | 0.02 | 0.02 | 93 | 1013.6 |
| 20260504231012 | 63 | 125 | 6.0 | 9.0 | 0.00 | 0.02 | 0.02 | 93 | 1013.6 |
| 20260504230508 | 63 | 148 | 11.0 | 13.0 | 0.00 | 0.02 | 0.02 | 93 | 1013.6 |
| 20260504230033 | 63 | 177 | 6.0 | 9.0 | 0.02 | 0.02 | 0.02 | 93 | 1013.6 |
| 20260504225509 | 63 | 136 | 10.0 | 13.0 | 0.02 | 0.02 | 0.02 | 93 | 1013.9 |
| 20260504225012 | 63 | 139 | 11.0 | 12.0 | 0.02 | 0.02 | 0.02 | 93 | 1013.9 |
| 20260504224012 | 63 | 137 | 8.0 | 11.0 | 0.02 | 0.02 | 0.02 | 93 | 1013.9 |
| 20260504223509 | 63 | 142 | 7.0 | 9.0 | 0.01 | 0.01 | 0.01 | 93 | 1013.9 |
| 20260504223023 | 63 | 175 | 8.0 | 12.0 | 0.01 | 0.01 | 0.01 | 92 | 1014.2 |
| 20260504222508 | 63 | 154 | 3.0 | 6.0 | 0.01 | 0.01 | 0.01 | 92 | 1013.9 |
| 20260504222012 | 63 | 170 | 9.0 | 12.0 | 0.01 | 0.01 | 0.01 | 92 | 1014.2 |
| 20260504221511 | 63 | 159 | 6.0 | 9.0 | 0.01 | 0.01 | 0.01 | 92 | 1014.2 |
| 20260504221013 | 63 | 157 | 3.0 | 4.0 | 0.01 | 0.01 | 0.01 | 91 | 1014.2 |
| 20260504220509 | 63 | 135 | 5.0 | 11.0 | 0.00 | 0.00 | 0.00 | 91 | 1014.2 |
| 20260504220032 | 63 | 195 | 4.0 | 7.0 | 0.00 | 1.46 | 1.46 | 90 | 1014.2 |
| 20260504215509 | 63 | 138 | 6.0 | 9.0 | 0.00 | 1.46 | 1.46 | 90 | 1014.2 |
| 20260504215012 | 63 | 134 | 6.0 | 8.0 | 0.00 | 1.46 | 1.46 | 89 | 1014.6 |
| 20260504214512 | 63 | 167 | 12.0 | 15.0 | 0.00 | 1.46 | 1.46 | 88 | 1014.2 |
| 20260504214012 | 63 | 136 | 9.0 | 16.0 | 0.00 | 1.46 | 1.46 | 88 | 1014.6 |
| 20260504213508 | 63 | 135 | 6.0 | 9.0 | 0.00 | 1.46 | 1.46 | 88 | 1014.6 |
| 20260504213021 | 63 | 126 | 9.0 | 11.0 | 0.00 | 1.46 | 1.46 | 87 | 1014.6 |
| 20260504212513 | 64 | 192 | 5.0 | 7.0 | 0.00 | 1.46 | 1.46 | 87 | 1014.9 |
| 20260504211512 | 63 | 133 | 11.0 | 15.0 | 0.00 | 1.46 | 1.46 | 87 | 1014.6 |
| 20260504211012 | 63 | 145 | 6.0 | 9.0 | 0.00 | 1.46 | 1.46 | 87 | 1014.9 |
| 20260504210031 | 64 | 164 | 7.0 | 11.0 | 0.00 | 1.46 | 1.46 | 87 | 1014.6 |
| 20260504205510 | 63 | 138 | 9.0 | 11.0 | 0.00 | 1.46 | 1.46 | 87 | 1014.6 |
| 20260504205012 | 63 | 153 | 7.0 | 9.0 | 0.00 | 1.46 | 1.46 | 87 | 1014.9 |
| 20260504204512 | 63 | 124 | 5.0 | 9.0 | 0.00 | 1.46 | 1.46 | 87 | 1014.9 |
| 20260504204011 | 64 | 62 | 7.0 | 11.0 | 0.00 | 1.46 | 1.46 | 87 | 1014.6 |
| 20260504202509 | 63 | 135 | 7.0 | 9.0 | 0.00 | 1.46 | 1.46 | 86 | 1014.6 |
| 20260504202014 | 64 | 113 | 7.0 | 11.0 | 0.00 | 1.46 | 1.46 | 87 | 1014.9 |
| 20260504201512 | 63 | 143 | 6.0 | 9.0 | 0.00 | 1.46 | 1.46 | 87 | 1014.6 |
| 20260504201013 | 63 | 117 | 8.0 | 11.0 | 0.00 | 1.46 | 1.46 | 86 | 1014.9 |
| 20260504200509 | 64 | 123 | 7.0 | 11.0 | 0.00 | 1.46 | 1.46 | 86 | 1014.6 |
| 20260504200029 | 64 | 142 | 4.0 | 6.0 | 0.00 | 1.46 | 1.46 | 86 | 1014.6 |
| 20260504195509 | 64 | 166 | 9.0 | 12.0 | 0.00 | 1.46 | 1.46 | 86 | 1014.9 |
| 20260504195012 | 64 | 166 | 7.0 | 9.0 | 0.00 | 1.46 | 1.46 | 85 | 1014.9 |
| 20260504194512 | 64 | 140 | 9.0 | 11.0 | 0.00 | 1.46 | 1.46 | 85 | 1014.6 |
| 20260504194014 | 64 | 117 | 6.0 | 9.0 | 0.00 | 1.46 | 1.46 | 85 | 1014.6 |
| 20260504193510 | 63 | 133 | 8.0 | 11.0 | 0.00 | 1.46 | 1.46 | 85 | 1014.9 |
| 20260504193022 | 64 | 141 | 7.0 | 9.0 | 0.00 | 1.46 | 1.46 | 86 | 1014.9 |
| 20260504192509 | 64 | 181 | 9.0 | 12.0 | 0.00 | 1.46 | 1.46 | 85 | 1014.6 |
| 20260504192013 | 64 | 162 | 8.0 | 9.0 | 0.00 | 1.46 | 1.46 | 85 | 1014.9 |
| 20260504185509 | 63 | 161 | 6.0 | 8.0 | 0.00 | 1.46 | 1.46 | 86 | 1014.6 |
| 20260504185013 | 64 | 166 | 3.0 | 5.0 | 0.00 | 1.46 | 1.46 | 86 | 1014.9 |
| 20260504184515 | 64 | 129 | 6.0 | 9.0 | 0.00 | 1.46 | 1.46 | 86 | 1014.6 |
| 20260504184013 | 64 | 135 | 2.0 | 4.0 | 0.00 | 1.46 | 1.46 | 85 | 1014.6 |
| 20260504183509 | 64 | 148 | 5.0 | 7.0 | 0.00 | 1.46 | 1.46 | 85 | 1014.9 |
| 20260504183023 | 64 | 157 | 6.0 | 11.0 | 0.00 | 1.46 | 1.46 | 85 | 1014.6 |
| 20260504182509 | 64 | 138 | 8.0 | 12.0 | 0.00 | 1.46 | 1.46 | 85 | 1014.9 |
| 20260504182013 | 64 | 158 | 7.0 | 8.0 | 0.00 | 1.46 | 1.46 | 84 | 1014.6 |
| 20260504181513 | 64 | 197 | 7.0 | 11.0 | 0.00 | 1.46 | 1.46 | 84 | 1014.6 |
| 20260504181014 | 64 | 154 | 7.0 | 11.0 | 0.00 | 1.46 | 1.46 | 84 | 1014.6 |
| 20260504180510 | 64 | 135 | 8.0 | 11.0 | 0.00 | 1.46 | 1.46 | 85 | 1014.6 |
| 20260504175509 | 64 | 131 | 12.0 | 13.0 | 0.00 | 1.46 | 1.46 | 85 | 1014.6 |
| 20260504175013 | 64 | 158 | 11.0 | 13.0 | 0.00 | 1.46 | 1.46 | 85 | 1014.6 |
| 20260504174513 | 64 | 130 | 6.0 | 8.0 | 0.00 | 1.46 | 1.46 | 85 | 1014.6 |
| 20260504174013 | 64 | 196 | 12.0 | 13.0 | 0.00 | 1.46 | 1.46 | 85 | 1014.9 |
| 20260504173509 | 64 | 158 | 6.0 | 11.0 | 0.00 | 1.46 | 1.46 | 85 | 1014.9 |
| 20260504173023 | 64 | 154 | 9.0 | 11.0 | 0.00 | 1.46 | 1.46 | 85 | 1014.9 |
| 20260504172509 | 64 | 230 | 8.0 | 12.0 | 0.00 | 1.46 | 1.46 | 85 | 1014.9 |
| 20260504172013 | 64 | 137 | 7.0 | 9.0 | 0.00 | 1.46 | 1.46 | 84 | 1014.9 |
| 20260504171513 | 64 | 178 | 9.0 | 11.0 | 0.00 | 1.46 | 1.46 | 84 | 1014.9 |
| 20260504171013 | 64 | 154 | 15.0 | 20.0 | 0.00 | 1.46 | 1.46 | 83 | 1014.9 |
| 20260504170508 | 64 | 163 | 4.0 | 7.0 | 0.00 | 1.46 | 1.46 | 83 | 1014.9 |
| 20260504151014 | 64 | 150 | 13.0 | 16.0 | 0.05 | 1.39 | 1.39 | 79 | 1015.6 |
| 20260504150510 | 64 | 134 | 12.0 | 16.0 | 0.00 | 1.34 | 1.34 | 78 | 1015.6 |
| 20260504141013 | 66 | 169 | 9.0 | 16.0 | 0.12 | 1.11 | 1.11 | 77 | 1015.6 |
| 20260504140509 | 66 | 152 | 10.0 | 15.0 | 0.05 | 1.03 | 1.03 | 78 | 1015.6 |
| 20260504130509 | 66 | 132 | 13.0 | 17.0 | 0.00 | 0.50 | 0.50 | 79 | 1015.9 |
| 20260504110509 | 66 | 167 | 15.0 | 19.0 | 0.00 | 0.12 | 0.12 | 76 | 1016.6 |
| 20260504100509 | 64 | 144 | 13.0 | 20.0 | 0.00 | 0.10 | 0.10 | 77 | 1016.9 |
| 20260504081513 | 64 | 171 | 10.0 | 16.0 | 0.00 | 0.00 | 0.00 | 83 | 1016.9 |
| 20260504081014 | 64 | 154 | 6.0 | 9.0 | 0.00 | 0.00 | 0.00 | 84 | 1016.9 |
| 20260504080509 | 64 | 314 | 9.0 | 12.0 | 0.00 | 0.00 | 0.00 | 84 | 1016.9 |